星链-4379 (STARLINK-4379 )

导读

STARLINK-4379是美国太空探索技术公司(SpaceX)星链(Starlink)项目的卫星,于2022年7月22日发射升空。作为星链卫星互联网星座的一员,它运行在近地轨道,主要为全球偏远地区等网络覆盖薄弱区域提供低延迟、高速宽带互联网服务,助力缩小数字鸿沟,同时支撑部分应急通信等场景应用,是SpaceX构建大规模卫星互联网组网的重要节点。

Basic Information
目录编号:
53217
目录名称:
STARLINK-4379
国际标识:
2022-084AE
轨道中心:
EARTH
卫星名称:
星链-4379
卫星全名:
星链-4379 (STARLINK-4379 )
卫星状态:
已陨落 最后检测时间 2025-06-01
发射日期:
2022-07-22 UTC
国别 :
美国 (US)
星等 :
--
Orbit Information
数据来源 国际轨道数据
星历时间: 2025-06-01T23:47:54+0800
轨道信息已过期380天
半长轴: 6520.962km
偏心率: 0.0016343
轨道倾角: 97.627°
近地点辐角 250.043°
升交点赤经 221.183°
平近点角 270.508°
近地点: 132.169km
远地点: 153.485km
周期: 87.343分钟
每日圈数: 16.486761
Detailed Information
固有亮度:
5
最大亮度:
2.5
卫星平台:
Starlink v1.5
覆盖范围:
全球
运营商:
太空探索技术公司
运营商所在国:
美国
制造商(研发单位):
太空探索技术公司
制造商所在国:
美国
使用方式:
暂无
Satellite Introduction
星链(Starlink)计划是由太空探索技术公司(SpaceX)提出的一个巨型低轨卫星互联网星座项目,计划在2019年至2024年间在太空搭建由约1.2万颗卫星组成的“星链”网络,其中1584颗将部署在地球上空550千米处的近地轨道,并从2020年开始工作。该卫星仍在工作。